Home   Weather   San Fernando   Past weeks

Flag for Trinidad and Tobago Past Weather in San Fernando, Trinidad and Tobago — Yesterday and Last 2 Weeks

Now
79 °F

Scattered showers. Passing clouds.


Feels Like: 83 °F
Forecast: 79 / 90 °F
Wind: No wind

Location: Piarco International Airport - Trinidad

Current Time: Aug 31, 2016 at 10:03:09 PM

Latest Report: Aug 31, 2016 at 9:00 PM


Visibility: 4 mi

Pressure: 29.95 "Hg

Humidity: 94%

Dew Point: 77 °F

Location of San FernandoLocation

Past Weather in San Fernando — Graph

°F

San Fernando Temperature Yesterday

Maximum temperature yesterday: 93 °F (at 1:00 PM)
Minimum temperature yesterday: 77 °F (at 2:00 AM)
Average temperature yesterday: 83 °F

High & Low Weather Summary for the Past Weeks

 TemperatureHumidityPressure
High95 °F (Aug 23, 1:00 PM)100% (Aug 17, 7:00 AM)30.01 "Hg (Aug 17, 7:00 AM)
Low73 °F (Aug 28, 4:00 AM)49% (Aug 23, 11:00 AM)29.80 "Hg (Aug 24, 4:00 PM)
Average83 °F80%29.91 "Hg
* Reported Aug 16 9:00 PM — Aug 31 9:00 PM, San Fernando, Weather by CustomWeather, © 2016

Note: Actual official high and low records may vary slightly from our data, if they occured in-between our weather recording intervals... More about our weather records

Advertising

San Fernando Weather History for the Previous 24 Hours

Scroll right to see more
 ConditionsComfort  
Time TempWeatherWind HumidityBarometerVisibility
9:00 PM
Wed, Aug 31
79 °FScattered showers. Passing clouds.No wind94%29.95 "Hg4 mi
7:00 PM81 °FPassing clouds.7 mph89%29.89 "HgN/A
6:00 PM84 °FScattered clouds.12 mph70%29.86 "HgN/A
5:00 PM88 °FScattered clouds.16 mph62%29.83 "HgN/A
4:00 PM91 °FScattered clouds.15 mph56%29.83 "HgN/A
3:00 PM91 °FPassing clouds.18 mph59%29.83 "HgN/A
2:00 PM91 °FScattered clouds.17 mph52%29.86 "HgN/A
1:00 PM91 °FScattered clouds.17 mph56%29.86 "HgN/A
12:00 PM91 °FScattered clouds.18 mph56%29.89 "HgN/A
11:00 AM91 °FScattered clouds.16 mph56%29.92 "HgN/A
10:00 AM90 °FPartly sunny.18 mph63%29.92 "HgN/A
9:00 AM86 °FPartly sunny.13 mph75%29.92 "HgN/A
8:00 AM86 °FScattered showers. Passing clouds.13 mph75%29.92 "HgN/A
7:00 AM79 °FSprinkles. Scattered clouds.9 mph94%29.89 "HgN/A
6:00 AM79 °FPassing clouds.5 mph89%29.89 "HgN/A
5:00 AM79 °FScattered showers. Passing clouds.5 mph94%29.89 "Hg5 mi
4:00 AM79 °FPassing clouds.No wind89%29.89 "HgN/A
3:00 AM79 °FPassing clouds.3 mph94%29.89 "HgN/A
2:00 AM81 °FPassing clouds.5 mph84%29.89 "HgN/A
1:00 AM81 °FScattered showers. Passing clouds.12 mph84%29.89 "HgN/A
12:00 AM82 °FPassing clouds.12 mph79%29.92 "HgN/A
11:00 PM
Tue, Aug 30
81 °FScattered showers. Passing clouds.6 mph84%29.92 "HgN/A
10:00 PM81 °FPassing clouds.5 mph84%29.92 "HgN/A
Weather by CustomWeather, © 2016

See weather overviewHow to use our weather pages